FW7504 Weather Reports


time (UTC)temp
C
wind
direction
speed
KPH
gust
KPH
rain 1hr
cm
rain 24hr
cm
rain mn
cm
humidity
%
barometer
mb
20260904173103 33 360 0.0 3.2 0.00 0.00 0.00 61 1018.1
20260904172551 33 0 0.0 6.4 0.00 0.00 0.00 62 1018.3
20260904172053 33 360 1.6 6.4 0.00 0.00 0.00 61 1018.2
20260904171602 32 360 1.6 8.0 0.00 0.00 0.00 61 1018.4
20260904171052 32 360 3.2 8.0 0.00 0.00 0.00 61 1018.4
20260904170549 32 360 1.6 8.0 0.00 0.00 0.00 61 1018.5
20260904170130 32 360 1.6 8.0 0.00 0.00 0.00 62 1018.5
20260904165550 32 360 3.2 6.4 0.00 0.00 0.00 63 1018.6
20260904165052 32 360 1.6 8.0 0.00 0.00 0.00 65 1018.7
20260904164605 32 0 1.6 8.0 0.00 0.00 0.00 65 1018.7
20260904164053 32 360 1.6 6.4 0.00 0.00 0.00 65 1018.7
20260904163555 31 360 0.0 6.4 0.00 0.00 0.00 65 1018.7
20260904163106 31 360 0.0 8.0 0.00 0.00 0.00 66 1018.8
20260904162550 31 0 0.0 8.0 0.00 0.00 0.00 65 1018.8
20260904162052 31 360 1.6 6.4 0.00 0.00 0.00 67 1018.9
20260904161603 31 0 0.0 1.6 0.00 0.00 0.00 68 1018.9
20260904161048 31 0 0.0 3.2 0.00 0.00 0.00 68 1019.1
20260904160552 31 360 0.0 4.8 0.00 0.00 0.00 68 1019.1
20260904160105 31 0 0.0 6.4 0.00 0.00 0.00 68 1019.2
20260904155552 31 360 0.0 6.4 0.00 0.00 0.00 68 1019.3
20260904155054 31 360 1.6 6.4 0.00 0.00 0.00 68 1019.3
20260904154607 31 360 0.0 4.8 0.00 0.00 0.00 69 1019.2
20260904154052 31 0 0.0 4.8 0.00 0.00 0.00 69 1019.2
20260904153552 30 0 0.0 4.8 0.00 0.00 0.00 70 1019.2
20260904153107 30 0 0.0 4.8 0.00 0.00 0.00 70 1019.3
20260904152552 30 0 0.0 4.8 0.00 0.00 0.00 71 1019.2
20260904152054 30 0 1.6 4.8 0.00 0.00 0.00 71 1019.2
20260904151603 30 360 0.0 4.8 0.00 0.00 0.00 71 1019.3
20260904151052 30 360 0.0 4.8 0.00 0.00 0.00 71 1019.3
20260904150552 30 360 0.0 6.4 0.00 0.00 0.00 71 1019.3
20260904145552 30 360 0.0 3.2 0.00 0.00 0.00 74 1019.2
20260904145051 29 0 0.0 3.2 0.00 0.00 0.00 74 1019.3
20260904144603 29 360 0.0 4.8 0.00 0.00 0.00 75 1019.3
20260904144056 29 0 1.6 4.8 0.00 0.00 0.00 74 1019.2
20260904143552 28 0 0.0 4.8 0.00 0.00 0.00 75 1019.1
20260904143101 28 360 1.6 4.8 0.00 0.00 0.00 76 1019.1
20260904142553 28 0 0.0 3.2 0.00 0.00 0.00 76 1019.0
20260904142054 28 0 0.0 1.6 0.00 0.00 0.00 75 1019.1
20260904141622 28 0 0.0 3.2 0.00 0.00 0.00 77 1018.9
20260904141053 28 0 0.0 3.2 0.00 0.00 0.00 77 1018.8
20260904140552 28 0 0.0 3.2 0.00 0.00 0.00 77 1018.8
20260904140105 27 0 0.0 3.2 0.00 0.00 0.00 78 1018.7
20260904135556 27 360 0.0 3.2 0.00 0.00 0.00 78 1018.8
20260904135053 27 360 0.0 3.2 0.00 0.00 0.00 79 1018.9
20260904134606 27 0 0.0 3.2 0.00 0.00 0.00 80 1018.9
20260904134052 27 360 0.0 3.2 0.00 0.00 0.00 81 1018.8
20260904133551 26 360 0.0 3.2 0.00 0.00 0.00 81 1018.8
20260904133101 26 0 1.6 3.2 0.00 0.00 0.00 82 1018.8
20260904132553 26 0 0.0 4.8 0.00 0.00 0.00 83 1018.8
20260904132054 26 360 1.6 4.8 0.00 0.00 0.00 83 1018.8
20260904131639 26 0 0.0 3.2 0.00 0.00 0.00 85 1019.0
20260904131052 25 0 0.0 3.2 0.00 0.00 0.00 86 1019.0
20260904130552 25 0 0.0 0.0 0.00 0.00 0.00 87 1018.9
20260904125553 25 0 0.0 0.0 0.00 0.00 0.00 88 1018.9
20260904125050 25 0 0.0 0.0 0.00 0.00 0.00 88 1019.0
20260904124559 25 0 0.0 0.0 0.00 0.00 0.00 89 1018.9
20260904124049 24 0 0.0 0.0 0.00 0.00 0.00 89 1018.8
20260904123549 24 0 0.0 0.0 0.00 0.00 0.00 90 1018.8
20260904123109 24 0 0.0 0.0 0.00 0.00 0.00 90 1018.9
20260904122552 23 0 0.0 0.0 0.00 0.00 0.00 90 1018.8
20260904122054 23 0 0.0 1.6 0.00 0.00 0.00 91 1018.8
20260904121559 23 0 0.0 3.2 0.00 0.00 0.00 91 1018.9
20260904121052 23 0 0.0 3.2 0.00 0.00 0.00 91 1018.9
20260904120555 23 0 0.0 0.0 0.00 0.00 0.00 91 1018.8
20260904120106 23 0 0.0 0.0 0.00 0.00 0.00 91 1018.7
20260904115551 23 0 0.0 0.0 0.00 0.00 0.00 91 1018.8
20260904115052 23 0 0.0 1.6 0.00 0.00 0.00 91 1018.7
20260904114601 23 0 0.0 1.6 0.00 0.00 0.00 91 1018.6
20260904114052 23 0 0.0 0.0 0.00 0.00 0.00 91 1018.6
20260904113552 23 0 0.0 0.0 0.00 0.00 0.00 90 1018.5
20260904113110 23 0 0.0 0.0 0.00 0.00 0.00 90 1018.4
20260904112551 23 0 0.0 0.0 0.00 0.00 0.00 91 1018.6
20260904112051 23 0 0.0 0.0 0.00 0.00 0.00 91 1018.5
20260904111600 23 0 0.0 3.2 0.00 0.00 0.00 90 1018.5
20260904111051 23 0 0.0 3.2 0.00 0.00 0.00 90 1018.4
20260904110552 23 0 0.0 3.2 0.00 0.00 0.00 90 1018.3
20260904110106 23 360 0.0 3.2 0.00 0.00 0.00 90 1018.2
20260904105552 23 0 0.0 1.6 0.00 0.00 0.00 90 1018.1
20260904105053 23 0 0.0 1.6 0.00 0.00 0.00 89 1018.1
20260904104611 23 0 0.0 0.0 0.00 0.00 0.00 89 1018.0
20260904104051 23 0 0.0 0.0 0.00 0.00 0.00 89 1017.9
20260904103552 23 0 0.0 0.0 0.00 0.00 0.00 89 1018.0
20260904103107 23 0 0.0 0.0 0.00 0.00 0.00 89 1017.9
20260904102552 23 0 0.0 0.0 0.00 0.00 0.00 89 1017.9
20260904102052 23 0 0.0 0.0 0.00 0.00 0.00 89 1017.9
20260904101604 23 0 0.0 0.0 0.00 0.00 0.00 90 1018.0
20260904101051 23 0 0.0 0.0 0.00 0.00 0.00 89 1017.9
20260904100552 23 0 0.0 0.0 0.00 0.00 0.00 89 1017.9
20260904100059 23 0 0.0 0.0 0.00 0.00 0.00 89 1017.9
20260904095553 23 0 0.0 0.0 0.00 0.00 0.00 89 1017.9
20260904095052 23 0 0.0 0.0 0.00 0.00 0.00 89 1017.7
20260904094602 24 0 0.0 0.0 0.00 0.00 0.00 89 1017.8
20260904094051 24 0 0.0 0.0 0.00 0.00 0.00 89 1017.7
20260904093551 24 0 0.0 0.0 0.00 0.00 0.00 89 1017.7
20260904093105 24 0 0.0 0.0 0.00 0.00 0.00 89 1017.7
20260904092552 24 0 0.0 0.0 0.00 0.00 0.00 88 1017.7
20260904092052 24 0 0.0 0.0 0.00 0.00 0.00 89 1017.8
20260904091600 24 0 0.0 0.0 0.00 0.00 0.00 89 1017.7
20260904091051 24 0 0.0 0.0 0.00 0.00 0.00 88 1017.7
20260904090548 24 0 0.0 0.0 0.00 0.00 0.00 88 1017.6
20260904085548 24 0 0.0 0.0 0.00 0.00 0.00 88 1017.7
20260904085051 24 0 0.0 0.0 0.00 0.00 0.00 87 1017.8
20260904084601 24 0 0.0 0.0 0.00 0.00 0.00 87 1017.6
20260904084049 24 0 0.0 0.0 0.00 0.00 0.00 87 1017.7
20260904083550 24 0 0.0 0.0 0.00 0.00 0.00 87 1017.6
20260904083110 25 0 0.0 0.0 0.00 0.00 0.00 87 1017.5
20260904082550 25 0 0.0 0.0 0.00 0.00 0.00 87 1017.7
20260904082050 25 0 0.0 0.0 0.00 0.00 0.00 87 1017.6
20260904081559 25 0 0.0 0.0 0.00 0.00 0.00 87 1017.6
20260904081051 25 0 0.0 0.0 0.00 0.00 0.00 86 1017.6
20260904080549 25 0 0.0 0.0 0.00 0.00 0.00 86 1017.5
20260904075549 25 0 0.0 1.6 0.00 0.00 0.00 86 1017.4
20260904075051 25 0 0.0 1.6 0.00 0.00 0.00 86 1017.5
20260904074635 25 0 0.0 0.0 0.00 0.00 0.00 86 1017.3
20260904074049 25 0 0.0 0.0 0.00 0.00 0.00 86 1017.4
20260904073555 25 0 0.0 0.0 0.00 0.00 0.00 86 1017.5
20260904073103 25 0 0.0 0.0 0.00 0.00 0.00 86 1017.5
20260904072554 25 0 0.0 0.0 0.00 0.00 0.00 85 1017.4
20260904072051 25 0 0.0 0.0 0.00 0.00 0.00 86 1017.2
20260904071555 25 0 0.0 0.0 0.00 0.00 0.00 86 1017.2
20260904071049 25 0 0.0 0.0 0.00 0.00 0.00 85 1017.0
20260904070554 25 0 0.0 1.6 0.00 0.00 0.00 85 1017.2
20260904070104 25 0 0.0 1.6 0.00 0.00 0.00 85 1017.2
20260904065548 25 0 0.0 0.0 0.00 0.00 0.00 85 1017.3
20260904065051 25 0 0.0 0.0 0.00 0.00 0.00 85 1017.3
20260904064601 25 0 0.0 0.0 0.00 0.00 0.00 85 1017.2
20260904064051 25 0 0.0 0.0 0.00 0.00 0.00 85 1017.2
20260904063552 25 0 0.0 0.0 0.00 0.00 0.00 85 1017.2
20260904063112 25 0 0.0 1.6 0.00 0.00 0.00 85 1017.5
20260904062555 25 0 0.0 1.6 0.00 0.00 0.00 84 1017.6
20260904062054 26 0 0.0 0.0 0.00 0.00 0.00 84 1017.6
20260904061603 26 0 0.0 0.0 0.00 0.00 0.00 84 1017.5
20260904061049 26 0 0.0 0.0 0.00 0.00 0.00 84 1017.5
20260904060552 26 0 0.0 0.0 0.00 0.00 0.00 84 1017.5
20260904060115 26 0 0.0 0.0 0.00 0.00 0.00 83 1017.5
20260904055551 26 0 0.0 0.0 0.00 0.00 0.00 83 1017.5
20260904055051 26 0 0.0 0.0 0.00 0.00 0.00 83 1017.5
20260904054608 26 0 0.0 0.0 0.00 0.00 0.00 83 1017.5
20260904054050 26 0 0.0 0.0 0.00 0.00 0.00 83 1017.4
20260904053551 26 0 0.0 0.0 0.00 0.00 0.00 82 1017.6
20260904053101 26 0 0.0 0.0 0.00 0.00 0.00 82 1017.6
20260904052552 26 0 0.0 0.0 0.00 0.00 0.00 82 1017.7
20260904052052 26 0 0.0 0.0 0.00 0.00 0.00 82 1017.6
20260904051600 26 0 0.0 0.0 0.00 0.00 0.00 81 1017.7
20260904051051 26 0 0.0 0.0 0.00 0.00 0.00 81 1017.8
20260904050551 26 0 0.0 0.0 0.00 0.00 0.00 81 1017.9
20260904050107 26 0 0.0 0.0 0.00 0.00 0.00 80 1017.8
20260904045552 26 0 0.0 0.0 0.00 0.00 0.00 80 1017.8
20260904045053 26 0 0.0 0.0 0.00 0.00 0.00 80 1017.8
20260904044606 26 0 0.0 0.0 0.00 0.00 0.00 80 1017.8
20260904044052 26 0 0.0 0.0 0.00 0.00 0.00 80 1017.9
20260904043549 27 0 0.0 0.0 0.00 0.00 0.00 80 1017.9
20260904043103 27 0 0.0 0.0 0.00 0.00 0.00 80 1018.0
20260904042551 27 0 0.0 1.6 0.00 0.00 0.00 79 1017.9
20260904042049 27 0 0.0 1.6 0.00 0.00 0.00 79 1017.8
20260904041602 27 0 0.0 1.6 0.00 0.00 0.00 79 1017.8
20260904041053 27 108 0.0 0.0 0.00 0.00 0.00 79 1018.0
20260904040548 27 0 0.0 0.0 0.00 0.00 0.00 78 1018.1
20260904040100 27 0 0.0 1.6 0.00 0.00 0.00 78 1018.1
20260904035552 27 0 0.0 3.2 0.00 0.00 0.00 78 1018.1
20260904035055 27 0 0.0 3.2 0.00 0.00 0.00 78 1018.1
20260904034615 27 0 0.0 3.2 0.00 0.00 0.00 78 1018.1
20260904034051 27 0 0.0 0.0 0.00 0.00 0.00 78 1018.0
20260904033551 27 0 0.0 0.0 0.00 0.00 0.00 78 1018.1
20260904033102 27 0 0.0 0.0 0.00 0.00 0.00 78 1018.1
20260904032550 27 0 0.0 0.0 0.00 0.00 0.00 77 1018.2
20260904032051 27 0 0.0 0.0 0.00 0.00 0.00 77 1018.2
20260904031558 27 0 0.0 0.0 0.00 0.00 0.00 76 1018.2
20260904031051 27 0 0.0 1.6 0.00 0.00 0.00 76 1018.2
20260904030553 28 0 0.0 1.6 0.00 0.00 0.00 76 1018.3
20260904025554 28 0 0.0 1.6 0.00 0.00 0.00 75 1018.3
20260904025051 28 0 0.0 0.0 0.00 0.00 0.00 75 1018.3
20260904024603 28 0 0.0 0.0 0.00 0.00 0.00 74 1018.2
20260904024049 28 0 0.0 0.0 0.00 0.00 0.00 74 1018.2
20260904023548 28 0 0.0 0.0 0.00 0.00 0.00 74 1018.2
20260904023108 28 0 0.0 3.2 0.00 0.00 0.00 73 1018.2
20260904022551 28 0 0.0 3.2 0.00 0.00 0.00 73 1018.2
20260904022048 28 0 0.0 3.2 0.00 0.00 0.00 73 1018.1
20260904021601 28 0 0.0 3.2 0.00 0.00 0.00 73 1018.0
20260904021051 28 0 0.0 3.2 0.00 0.00 0.00 74 1018.0
20260904020552 28 0 0.0 0.0 0.00 0.00 0.00 73 1018.0
20260904020101 28 0 0.0 0.0 0.00 0.00 0.00 73 1018.0
20260904015551 29 0 0.0 0.0 0.00 0.00 0.00 73 1017.9
20260904015048 29 0 0.0 0.0 0.00 0.00 0.00 72 1017.7
20260904014608 29 0 0.0 0.0 0.00 0.00 0.00 72 1017.7
20260904014048 29 0 0.0 0.0 0.00 0.00 0.00 72 1017.8
20260904013551 30 0 0.0 0.0 0.00 0.00 0.00 71 1017.6
20260904013103 30 0 0.0 0.0 0.00 0.00 0.00 71 1017.4
20260904012551 30 0 0.0 0.0 0.00 0.00 0.00 70 1017.5
20260904012053 30 0 0.0 0.0 0.00 0.00 0.00 70 1017.3
20260904011601 30 0 0.0 0.0 0.00 0.00 0.00 70 1017.4
20260904011053 30 0 0.0 0.0 0.00 0.00 0.00 69 1017.3
20260904010554 30 0 0.0 0.0 0.00 0.00 0.00 68 1017.3
20260904010103 30 0 0.0 0.0 0.00 0.00 0.00 67 1017.2
20260904005555 30 0 0.0 0.0 0.00 0.00 0.00 68 1017.2
20260904005055 31 0 0.0 0.0 0.00 0.00 0.00 66 1017.2
20260904004603 31 0 0.0 0.0 0.00 0.00 0.00 67 1017.2
20260904004053 31 0 0.0 0.0 0.00 0.00 0.00 66 1016.9
20260904003554 31 0 0.0 0.0 0.00 0.00 0.00 65 1016.8
20260904003102 31 0 0.0 0.0 0.00 0.00 0.00 64 1016.8
20260904002557 31 0 0.0 0.0 0.00 0.00 0.00 64 1016.7
20260904002058 32 0 0.0 0.0 0.00 0.00 0.00 63 1016.5
20260904001601 32 0 0.0 0.0 0.00 0.00 0.00 63 1016.5
20260904001053 32 0 0.0 0.0 0.00 0.00 0.00 62 1016.5
20260904000553 32 0 0.0 0.0 0.00 0.00 0.00 61 1016.5
20260904000134 32 0 0.0 0.0 0.00 0.00 0.00 60 1016.4
20260903235552 33 0 0.0 0.0 0.00 0.00 0.00 60 1016.2
20260903235056 33 0 0.0 0.0 0.00 0.00 0.00 59 1016.2
20260903234600 33 0 0.0 0.0 0.00 0.00 0.00 59 1016.3
20260903234053 33 0 0.0 0.0 0.00 0.00 0.00 58 1016.2
20260903233554 33 0 0.0 0.0 0.00 0.00 0.00 58 1016.2
20260903233105 33 0 0.0 1.6 0.00 0.00 0.00 58 1016.3
20260903232553 33 0 0.0 1.6 0.00 0.00 0.00 58 1016.1
20260903232055 33 0 0.0 1.6 0.00 0.00 0.00 57 1016.2
20260903231600 33 0 0.0 1.6 0.00 0.00 0.00 57 1016.2
20260903231054 34 0 0.0 0.0 0.00 0.00 0.00 56 1016.1
20260903230554 34 0 0.0 0.0 0.00 0.00 0.00 56 1016.2
20260903230114 34 0 0.0 0.0 0.00 0.00 0.00 55 1016.2
20260903225553 34 0 0.0 1.6 0.00 0.00 0.00 53 1016.1
20260903225053 35 0 0.0 3.2 0.00 0.00 0.00 52 1016.1
20260903224610 35 0 0.0 6.4 0.00 0.00 0.00 52 1016.1
20260903224053 35 0 0.0 6.4 0.00 0.00 0.00 51 1016.1
20260903223554 35 96 0.0 6.4 0.00 0.00 0.00 51 1016.3
20260903223059 35 78 1.6 6.4 0.00 0.00 0.00 50 1016.3
20260903222553 35 92 3.2 6.4 0.00 0.00 0.00 50 1016.1
20260903222057 35 0 0.0 6.4 0.00 0.00 0.00 50 1016.2
20260903221606 36 0 0.0 4.8 0.00 0.00 0.00 50 1016.0
20260903221052 36 89 0.0 4.8 0.00 0.00 0.00 49 1016.1
20260903220553 36 91 0.0 9.7 0.00 0.00 0.00 49 1016.1
20260903220121 36 0 1.6 9.7 0.00 0.00 0.00 48 1016.0
20260903215553 35 62 3.2 11.3 0.00 0.00 0.00 49 1016.0
20260903215053 35 0 1.6 11.3 0.00 0.00 0.00 49 1016.1
20260903214600 35 0 1.6 11.3 0.00 0.00 0.00 49 1016.2
20260903214053 36 0 0.0 6.4 0.00 0.00 0.00 50 1016.2
20260903213556 35 0 1.6 6.4 0.00 0.00 0.00 50 1016.2
20260903213105 35 0 0.0 11.3 0.00 0.00 0.00 50 1016.2
20260903212553 35 89 1.6 11.3 0.00 0.00 0.00 49 1016.2
20260903212054 35 57 3.2 11.3 0.00 0.00 0.00 48 1016.3
20260903211620 35 90 4.8 11.3 0.00 0.00 0.00 47 1016.5
20260903211055 35 67 3.2 9.7 0.00 0.00 0.00 49 1016.6
20260903210553 35 91 3.2 14.5 0.00 0.00 0.00 50 1016.6
20260903210111 35 0 1.6 14.5 0.00 0.00 0.00 49 1016.7
20260903205552 35 14 6.4 14.5 0.00 0.00 0.00 50 1016.7
20260903205052 35 0 0.0 11.3 0.00 0.00 0.00 51 1016.7
20260903204603 35 100 1.6 11.3 0.00 0.00 0.00 52 1016.7
20260903204054 35 40 0.0 11.3 0.00 0.00 0.00 53 1016.7
20260903203553 35 82 1.6 6.4 0.00 0.00 0.00 53 1016.8
20260903203105 35 0 0.0 9.7 0.00 0.00 0.00 53 1016.9
20260903202553 35 0 1.6 11.3 0.00 0.00 0.00 53 1016.8
20260903202053 35 120 3.2 16.1 0.00 0.00 0.00 53 1016.9
20260903201605 35 109 4.8 17.7 0.00 0.00 0.00 52 1016.9
20260903201053 35 106 6.4 17.7 0.00 0.00 0.00 52 1017.0
20260903200553 35 120 3.2 17.7 0.00 0.00 0.00 53 1017.0
20260903200106 35 81 9.7 17.7 0.00 0.00 0.00 51 1017.1
20260903195556 35 94 3.2 12.9 0.00 0.00 0.00 52 1017.1
20260903195053 35 108 3.2 16.1 0.00 0.00 0.00 51 1017.2
20260903194601 35 61 4.8 16.1 0.00 0.00 0.00 51 1017.2
20260903194056 35 59 4.8 19.3 0.00 0.00 0.00 51 1017.2
20260903193552 35 0 4.8 19.3 0.00 0.00 0.00 52 1017.2
20260903193102 35 94 8.0 19.3 0.00 0.00 0.00 52 1017.2
20260903192554 35 95 3.2 11.3 0.00 0.00 0.00 51 1017.4
20260903192055 35 96 1.6 9.7 0.00 0.00 0.00 51 1017.4
20260903191605 35 0 0.0 12.9 0.00 0.00 0.00 51 1017.6
20260903191054 35 326 4.8 12.9 0.00 0.00 0.00 51 1017.6
20260903190553 35 352 0.0 6.4 0.00 0.00 0.00 50 1017.6
20260903190103 35 67 0.0 6.4 0.00 0.00 0.00 51 1017.6
20260903185552 35 347 0.0 6.4 0.00 0.00 0.00 51 1017.8
20260903185053 35 85 1.6 9.7 0.00 0.00 0.00 52 1017.9
20260903184616 34 70 1.6 9.7 0.00 0.00 0.00 53 1017.9
20260903184054 34 82 1.6 9.7 0.00 0.00 0.00 54 1018.1
20260903183553 34 61 3.2 9.7 0.00 0.00 0.00 54 1018.1
20260903183102 34 11 0.0 9.7 0.00 0.00 0.00 54 1018.1
20260903182553 33 13 3.2 11.3 0.00 0.00 0.00 56 1018.1
20260903182052 33 61 1.6 11.3 0.00 0.00 0.00 55 1018.3
20260903181557 33 95 0.0 4.8 0.00 0.00 0.00 54 1018.4
20260903181053 33 0 0.0 4.8 0.00 0.00 0.00 54 1018.4
20260903180553 33 98 0.0 4.8 0.00 0.00 0.00 53 1018.4
20260903180111 33 0 1.6 8.0 0.00 0.00 0.00 54 1018.4
20260903175552 34 22 3.2 8.0 0.00 0.00 0.00 54 1018.5
20260903175053 34 44 3.2 8.0 0.00 0.00 0.00 52 1018.4
20260903174613 34 0 0.0 3.2 0.00 0.00 0.00 54 1018.6
20260903174057 34 103 0.0 8.0 0.00 0.00 0.00 54 1018.6
20260903173554 34 0 1.6 11.3 0.00 0.00 0.00 53 1018.7